User: anonymous   Login
Location: Asheville, NC
(35.6000°N, 82.5500°W)
Time: 13:01:26
(UTC-05:00)
Language:

NO-84 - Orbit

View from above orbital plane
View from above orbital plane
View from above satellite
View from above satellite

Ground track
Ground track

The orbit data is extracted from the following two-line orbital elements,

1 40654U 15025D   18015.31453170  .00005473  00000-0  96631-4 0 01946
2 40654 054.9915 005.5286 0170094 081.6215 280.4104 15.37875101032309
Epoch (UTC): 15 January 2018 07:32:55
Eccentricity: 0.0170094
inclination: 54.9915°
perigee height: 336 km
apogee height: 568 km
right ascension of ascending node: 5.5286°
argument of perigee: 81.6215°
revolutions per day: 15.37875101
mean anomaly at epoch: 280.4104°
orbit number at epoch: 3230

The dashed part of the orbit path shows where the satellite is in the earth's shadow,  

DLR